CZ-6A DEB, 55234

Orbit data source: Space-Track

CZ-6A DEB, 55234 is space debris in SSO originally from a launch on Fri, 11 Nov 2022 UTC launched from the Taiyaun Space Center, China (TSC). Debris objects in space refer to the collection of defunct objects orbiting the Earth. Examples of debris include non-operational satellites, rocket bodies, and fragments generated from explosions, collisions, or faulty payload assembly.

Loading next visibility...
Identifier
55234, 2022-151XB
Orbit
SSO
Country
Flag of CNCN / PRC
Related business
Manufacturer
SAST
Mission
Spacecraft
Bus & Motor
Unknown
Mass
Unknown
Launch date (UTC)
2022-11-11 (4 years ago)
Launch vehicle
Unknown
Launch site
Taiyaun Space Center, China (TSC)
Object type
Payload
Rocket body
Debris
Shape & HBR
Unknown shape, 0.1 m
Radar Cross Section
Medium (>0.1 m² and <1 m²)

Expand to show TLE details & history
Last TLE update: 12 hours ago

TLE from 12 hours ago
0 CZ-6A DEB
1 55234U 22151XB  26236.13066200  .00000511  00000-0  37685-3 0  9996
2 55234  98.8660 200.8523 0109011 229.1827 129.9844 13.97137507192485
Epoch: 2026-08-24T03:08Z
TLE epoch observation values (Epoch: 2026-08-24T03:08:09.196Z)
Latitude
-0.00001°
Longitude
-178.60279°
Altitude
958.123 km
Speed
7.347 km/s
True Right ascension
13h 23m 24s
True Declination
0° 00' 00"
Sunlit
Object was in daylight at epoch
Visualization orbit readout
Latitude
Unknown
Longitude
Unknown
Altitude
Unknown
Speed
Unknown
Apparent Right ascension
Unknown
Apparent Declination
Unknown
Sunlit
N/A
Visualization observer readout
Local Sidereal Time
06:29:39
Azimuth
Unknown
Elevation
Unknown
Doppler factor
Unknown
Orbital elements
Apogee altitude
980.27 km
Perigee altitude
821.571 km
Semi-major axis
7,279.058 km
Eccentricity
0.0109
Inclination
98.866°
RAAN
200.8523°
Arg. of periapsis
229.1827°
True anomaly
130.93319°
Mean anomaly
129.9844°
Eccentric anomaly
130.45963°
Mean motion
3.49487 °/min
Orbital period
103.01 mins
BSTAR
0.00037685
Loading maneuver chart data...
Computing Atmospheric mass density...
Loading historical data...
Loading historical data...
Loading historical data...
Loading historical data...
Loading historical data...
Loading historical data...
Loading historical data...

Documentation

Showing up to 5 results
|